Temp
23 23 22 22 22 23 23 22 22 23 23 23 23 22 22 22 22 24 25 25 26 26 24 25 25 26 26 25 25 24 22 21 20 20 19 19 19 18 18 18 18 18 18 17 16 16 16 17 17 17 17 16 17 19 20 20 18 18 19 19 19 19 19 19 19 19 19 19 19 19 18 18 18 18 17 17 17 17 17 17 17 18 18 18 17 17
23 22 21 23 23 23 24 23 22 22 23 24 24 22 22 22 23 25 25 24 26 26 24 24 25 26 26 25 24 24 22 21 20 20 19 19 19 19 18 18 18 18 18 17 17 17 17 17 16 16 16 16 17 18 19 19 18 19 20 20 20 19 19 20 20 20 19 19 19 19 19 18 18 18 18 18 18 18 18 18 18 18 18 18 18 18
22 21 22 23 22 21 22 22 22 23 24 24 23 22 22 22 23 24 26 25 25 26 24 24 25 25 24 24 23 23 23 21 20 21 20 20 20 19 19 18 18 19 18 18 17 17 17 17 17 17 16 17 17 18 18 19 19 19 19 20 20 19 20 20 20 20 20 19 20 19 19 18 18 18 18 18 18 18 18 18 18 18 17 17 17 18
21 22 23 23 21 20 21 22 23 24 24 24 23 22 21 22 23 23 24 26 25 25 24 25 25 24 24 24 23 23 23 22 21 21 20 20 20 20 19 19 19 19 18 18 18 17 17 17 17 17 17 17 18 18 19 19 19 19 19 20 19 19 19 19 20 20 20 20 19 19 19 19 18 18 18 18 17 18 17 17 17 17 17 17 17 17
21 23 23 22 22 22 22 22 24 24 23 23 23 22 22 23 23 22 23 25 25 24 25 25 24 23 24 25 25 23 22 22 21 21 20 20 20 20 20 20 19 19 19 18 18 17 17 17 18 18 18 18 18 19 19 19 19 19 19 19 19 19 19 19 20 20 20 19 19 19 18 18 18 18 18 17 17 17 17 17 17 17 17 17 17 17
22 23 23 23 23 22 23 23 24 24 22 22 23 24 23 23 23 23 23 23 23 23 24 24 21 22 23 25 25 24 22 22 21 21 20 20 20 20 20 20 19 19 19 19 19 18 18 18 18 18 18 18 18 19 19 19 19 19 19 19 19 19 19 19 19 19 19 19 19 18 18 18 17 17 17 17 17 17 17 17 17 17 17 17 17 17
23 23 23 23 24 23 23 24 24 24 22 21 23 24 23 23 23 23 23 22 21 21 23 23 21 21 22 24 26 24 23 22 22 21 21 20 20 20 20 20 19 19 19 19 19 18 18 18 18 18 18 18 18 18 19 19 19 19 19 19 19 19 19 19 19 19 19 19 19 19 18 18 18 17 17 17 17 17 17 17 17 17 17 17 17 17
24 23 23 24 24 24 23 23 24 24 22 22 23 24 24 24 23 23 23 22 21 22 22 23 22 21 21 23 25 23 23 24 24 23 22 21 21 20 20 20 20 19 19 19 19 18 18 18 18 18 18 18 18 19 19 19 19 19 19 19 19 19 19 19 19 19 19 19 19 19 18 18 18 17 17 17 17 17 17 17 17 17 16 16 16 16
23 23 24 25 24 23 24 24 24 23 23 23 24 24 24 24 24 23 23 22 22 22 21 22 22 21 20 23 24 24 24 24 24 24 23 21 21 21 20 20 20 19 19 19 19 19 18 18 18 18 19 19 19 19 19 19 19 19 20 20 19 19 19 19 19 20 20 19 19 19 18 18 18 17 17 17 17 16 17 16 16 16 16 16 16 16
24 24 25 25 24 24 24 25 24 24 24 24 24 24 24 24 24 23 23 22 21 21 20 21 21 21 20 22 23 24 24 24 23 22 21 21 21 21 20 20 20 20 20 20 19 19 18 18 19 19 19 19 19 19 19 19 19 19 20 20 19 19 19 19 20 20 19 19 19 19 18 18 17 17 17 17 17 16 16 16 16 16 16 16 16 16
23 24 24 25 25 25 25 25 24 25 25 24 24 24 24 23 23 23 22 21 21 20 20 20 21 21 20 21 22 23 22 23 24 22 20 21 21 20 20 20 20 20 20 20 19 18 17 18 18 19 19 19 19 19 19 18 19 19 20 20 19 19 19 19 19 20 19 19 19 19 18 18 18 17 17 17 17 16 16 16 16 16 16 16 16 16
23 24 24 25 25 25 25 25 24 24 24 24 24 23 22 22 22 22 21 21 20 20 20 20 21 21 20 21 22 22 21 22 23 22 20 20 20 20 20 20 20 20 20 19 19 18 17 17 17 17 18 18 18 18 18 18 18 18 19 19 19 19 19 19 19 19 19 19 19 19 18 18 18 17 17 17 17 16 16 16 16 16 16 16 16 16
23 23 23 24 25 25 25 24 24 24 24 24 23 22 21 20 20 20 20 20 20 20 20 20 21 21 20 21 22 21 21 21 21 21 21 20 20 20 20 20 20 20 20 19 19 18 18 17 16 16 17 18 18 18 18 18 18 17 18 18 18 19 19 19 19 19 19 19 19 19 18 18 18 17 17 17 17 16 17 16 16 16 16 16 16 16
22 23 23 24 24 25 25 23 22 23 23 23 22 21 20 20 19 19 19 19 19 20 20 20 21 20 20 21 22 20 20 21 20 20 21 20 20 20 20 20 19 19 19 19 18 18 18 17 16 16 17 17 18 18 18 17 17 17 17 17 18 18 19 19 19 19 19 19 19 18 18 18 18 18 17 17 17 17 17 17 16 16 16 16 16 17
20 21 23 23 24 24 25 24 23 23 23 23 22 21 21 20 20 19 19 19 19 20 20 20 20 20 20 21 22 20 19 20 20 19 20 19 19 19 19 19 19 18 18 18 18 18 18 16 16 17 17 17 17 17 17 16 17 17 17 17 17 17 17 17 18 19 19 19 18 18 18 18 18 18 18 17 17 17 17 17 17 17 17 17 17 17
20 21 23 23 24 24 24 24 25 24 23 22 22 21 21 21 21 20 19 19 20 20 20 20 20 20 20 21 21 20 19 19 19 19 19 19 18 18 18 18 18 18 18 18 18 18 17 15 16 17 17 17 16 16 16 16 16 17 17 17 17 16 15 15 17 18 19 19 18 18 18 18 18 18 18 17 17 17 17 17 17 17 17 17 17 17
20 21 22 23 24 25 24 24 25 24 23 22 22 21 21 21 21 20 19 19 19 19 19 19 20 20 20 21 20 20 19 18 19 19 19 18 18 18 17 17 18 18 17 17 17 17 16 15 15 16 16 16 16 15 15 16 16 17 17 17 17 16 15 16 17 18 19 19 18 18 18 18 18 18 18 18 17 17 17 17 17 17 17 17 17 17
21 21 22 23 23 24 23 24 25 25 24 23 22 22 22 21 21 21 20 19 19 19 19 19 20 20 20 20 20 20 20 18 18 18 18 18 18 17 17 17 17 17 17 17 16 16 15 14 15 15 15 16 16 15 15 15 16 16 16 17 17 17 17 17 17 17 18 19 19 18 18 18 18 18 18 18 18 17 17 17 17 17 17 17 17 17
21 21 21 22 22 23 24 24 24 24 24 23 23 23 22 21 21 21 20 19 18 18 19 19 19 19 19 19 19 19 19 18 18 18 17 17 17 17 17 17 16 16 16 16 16 16 15 15 15 15 15 16 16 16 16 16 16 16 16 16 17 17 17 16 16 16 17 17 18 18 18 18 18 18 18 18 18 18 18 17 17 17 17 17 17 17
21 20 21 22 21 22 23 22 21 21 23 23 23 23 22 21 20 20 19 19 19 18 18 18 18 18 19 19 19 18 18 18 18 17 17 17 17 17 16 16 16 16 16 16 16 16 15 14 15 16 15 16 17 17 16 16 16 16 16 16 16 16 16 15 16 16 16 17 17 18 18 18 18 18 18 18 18 18 18 18 18 18 18 17 17 17
20 19 20 21 21 21 22 21 20 20 21 22 22 22 21 20 20 20 19 18 19 19 17 18 18 18 19 19 19 18 18 18 18 17 17 17 16 16 16 16 16 16 17 16 16 16 15 14 15 16 16 16 17 18 17 17 16 16 17 17 15 14 14 14 15 16 17 17 18 18 18 18 18 18 18 18 18 18 18 18 18 18 18 18 17 17
20 19 20 20 20 20 21 21 21 21 21 21 21 21 21 20 20 20 19 17 18 19 18 18 18 18 19 19 18 18 18 18 18 17 17 16 16 16 16 16 17 17 17 17 17 16 15 14 15 16 16 15 16 16 17 17 16 16 17 16 14 12 13 14 15 15 16 17 17 17 18 18 18 18 18 18 18 18 18 18 18 18 18 18 18 17
19 20 20 19 20 20 20 20 20 21 22 21 21 20 19 20 20 20 19 18 18 18 18 18 18 18 19 18 17 17 18 18 17 17 16 16 16 16 15 16 17 17 17 17 17 16 14 14 15 16 15 15 15 15 15 16 16 16 16 16 14 13 13 14 14 15 15 16 17 17 17 18 18 18 17 17 18 17 17 17 17 18 18 17 17 17
19 19 19 19 19 20 21 21 20 21 21 21 20 19 18 19 20 20 19 19 18 18 17 17 17 18 18 17 17 18 17 17 17 16 16 16 16 16 16 16 17 17 17 16 16 15 14 14 15 15 15 15 15 15 14 14 15 15 15 15 14 13 14 14 14 14 15 15 16 17 17 17 18 17 17 17 17 17 17 17 17 17 17 16 17 17
20 19 18 18 18 19 20 21 20 19 19 19 19 19 19 19 19 19 18 19 19 18 18 18 17 18 18 17 17 17 17 17 17 16 16 16 16 16 16 17 17 17 17 16 16 16 15 15 14 15 15 15 15 15 15 14 14 14 14 14 14 14 14 14 14 14 15 15 16 16 17 17 16 16 17 17 17 17 17 17 16 16 15 15 15 16
19 18 18 18 18 17 18 18 18 18 18 18 19 18 18 18 19 19 18 19 19 18 18 18 17 18 18 17 17 17 17 16 16 16 16 16 17 17 17 17 17 17 17 17 16 16 16 15 14 14 15 15 16 16 15 15 15 14 14 14 15 15 15 15 14 14 14 15 15 15 16 16 15 15 16 16 16 16 17 17 16 15 15 14 14 14
18 18 18 18 18 18 18 17 17 18 18 18 18 18 17 17 18 18 18 18 18 18 18 18 17 18 18 17 17 17 17 17 16 16 16 16 17 17 17 17 17 17 17 17 16 16 16 15 14 14 15 16 16 16 16 16 16 15 15 15 15 16 16 16 16 15 14 15 16 16 16 16 16 16 17 17 17 16 16 16 16 15 15 15 14 14
18 17 17 17 17 17 17 17 17 17 17 17 17 17 16 16 18 18 18 17 17 17 18 17 17 18 18 18 18 17 17 17 16 16 16 16 17 17 17 17 16 16 16 16 16 16 16 16 14 13 15 16 16 16 16 16 17 16 16 16 16 16 16 16 16 16 15 15 16 16 16 16 16 16 16 16 16 16 15 15 15 16 15 16 16 15
18 17 17 16 16 16 16 17 17 17 17 16 16 17 16 16 17 17 17 17 17 18 17 16 17 17 17 17 17 17 17 17 16 16 15 16 16 16 16 17 16 16 16 15 15 15 15 16 14 12 14 15 16 16 16 17 17 17 17 17 16 16 16 16 16 16 16 16 16 16 16 16 16 16 16 16 16 16 16 15 15 16 16 16 16 16
17 17 16 16 16 16 16 16 16 16 16 15 15 16 16 16 16 16 17 17 17 17 16 16 17 16 16 16 15 15 16 16 15 16 16 16 16 16 16 16 16 16 16 15 15 15 15 15 14 12 13 15 15 16 16 16 17 17 17 17 17 17 16 16 16 16 16 16 16 16 16 16 16 16 16 16 16 16 16 16 16 16 16 16 16 16
17 16 16 16 16 15 16 15 15 15 15 15 16 16 16 17 16 16 16 16 17 16 14 15 16 15 15 15 14 14 14 14 15 15 15 15 15 16 16 17 16 15 15 15 15 15 15 15 13 12 13 14 15 16 16 16 16 16 16 16 16 16 17 17 17 16 16 16 16 16 16 16 16 16 16 16 16 16 16 16 16 16 16 16 15 15
17 16 15 16 16 15 15 15 15 15 15 16 16 16 16 16 15 14 14 14 15 15 14 15 15 14 15 14 13 13 13 13 14 14 13 13 13 14 15 16 16 16 15 15 15 14 15 14 13 12 13 14 15 16 16 16 16 16 16 16 16 16 16 16 16 16 16 16 16 16 16 16 16 16 16 16 16 16 16 16 16 16 15 16 16 15
17 16 15 15 15 14 14 14 15 15 15 15 14 14 14 15 14 13 12 12 13 14 14 14 14 13 13 13 12 12 12 13 13 13 13 12 12 12 12 13 14 15 14 14 13 13 12 12 12 12 13 14 15 16 16 16 16 16 16 16 16 16 16 16 16 16 16 16 16 16 16 16 16 16 16 16 16 16 16 16 16 16 15 16 15 15
16 16 15 14 15 14 13 14 15 14 13 13 12 12 13 13 12 11 11 10 11 12 12 12 12 12 12 12 12 12 12 12 12 12 12 12 12 12 12 12 12 12 12 12 12 11 11 10 11 12 13 14 15 15 16 16 16 16 16 16 16 16 16 16 16 16 16 16 16 16 16 16 16 16 16 16 16 16 16 16 16 15 15 15 15 15
16 16 15 14 14 14 13 14 14 12 13 13 12 11 12 12 11 10 10 10 10 11 11 11 11 11 11 11 12 12 11 12 12 12 12 12 12 12 12 12 12 12 12 12 11 11 10 11 12 13 13 14 14 15 15 15 15 15 15 15 15 15 15 15 15 15 15 16 16 16 16 16 16 16 16 16 16 16 16 16 16 15 15 15 15 15
16 16 15 14 14 13 12 13 13 12 12 12 12 12 12 11 11 11 10 10 10 10 11 11 11 11 11 11 11 12 11 12 12 11 11 12 12 12 12 12 12 12 12 12 11 11 11 12 12 13 13 13 14 14 15 15 15 15 15 15 15 15 15 15 15 15 15 15 15 15 15 15 15 16 16 16 16 15 15 15 15 15 15 15 15 15
16 15 15 14 13 13 12 12 12 12 12 11 11 11 11 11 12 12 10 9 10 10 10 10 10 10 10 11 11 11 11 11 12 11 11 11 11 12 11 11 12 12 11 11 12 12 12 12 13 12 13 13 13 13 14 14 15 15 15 15 15 15 15 15 15 15 15 14 14 15 15 15 15 15 15 15 15 15 15 15 15 15 15 14 14 14
15 15 15 14 13 13 13 12 12 12 11 11 10 10 10 10 10 11 11 10 10 10 10 10 10 10 10 11 10 10 11 11 11 11 11 11 11 11 11 11 11 12 12 12 13 13 13 13 13 13 12 13 13 13 13 14 14 14 14 14 14 15 15 14 14 14 14 14 14 14 14 14 14 14 14 15 15 15 15 14 14 14 14 14 14 14
14 14 14 14 13 12 13 12 12 11 10 9 9 10 10 9 9 11 11 9 10 10 10 10 10 9 10 10 10 10 11 10 10 10 11 11 11 11 11 11 11 12 13 13 13 13 13 13 13 13 13 13 13 13 13 13 14 14 14 14 14 14 14 14 14 14 14 14 14 14 14 14 14 14 14 14 14 14 14 14 14 14 13 13 13 13
13 13 13 13 12 11 12 12 10 9 9 9 9 10 10 9 11 12 10 9 10 10 9 9 9 9 9 9 10 10 10 9 10 10 10 10 10 10 10 10 10 11 12 13 13 13 13 13 13 13 14 14 13 13 13 13 14 14 14 14 14 14 14 14 14 14 14 14 14 14 14 14 14 14 14 14 14 13 13 13 13 13 13 13 13 13
12 12 12 11 11 11 11 10 8 8 9 9 9 10 10 10 11 11 9 9 10 10 9 9 9 9 9 9 9 9 9 9 10 10 10 10 10 10 10 10 11 11 12 12 12 13 13 13 13 13 13 14 14 14 14 13 14 14 14 14 14 14 14 14 14 14 14 14 14 14 14 14 13 13 13 13 13 13 13 13 13 13 13 12 12 12
10 10 10 10 10 10 11 10 8 8 9 9 9 10 11 10 10 10 9 9 10 9 9 9 9 9 9 9 9 9 9 9 9 10 10 10 10 10 9 9 10 11 11 12 12 12 12 13 13 13 13 13 13 14 14 14 14 14 14 14 14 14 14 14 14 14 14 13 13 13 13 13 13 13 13 13 13 13 13 13 13 12 12 12 11 11
9 9 10 9 9 10 9 9 8 8 9 9 9 10 10 10 9 10 10 9 10 9 9 9 9 9 9 9 9 9 10 10 10 9 10 10 10 9 8 9 9 10 10 11 11 11 11 11 12 12 12 13 13 13 14 14 14 14 13 13 14 14 14 14 14 14 13 13 13 13 13 13 13 13 13 12 12 12 12 12 12 12 12 11 11 11
8 9 9 9 9 9 8 7 8 8 9 10 9 9 9 9 9 10 10 9 9 9 9 9 9 9 9 9 9 9 9 9 9 8 8 9 9 8 7 8 9 9 10 10 10 10 10 10 10 11 11 12 12 13 13 13 13 13 13 13 13 13 13 13 13 13 13 13 13 13 13 13 13 13 12 12 12 12 12 12 12 12 11 11 11 10
8 9 9 8 8 8 7 7 8 9 9 9 9 8 9 9 9 9 9 9 9 9 9 9 9 8 8 8 8 8 8 8 8 8 8 8 8 7 7 7 8 9 9 9 10 10 10 10 10 10 10 11 11 12 12 13 13 13 13 13 13 13 13 13 12 12 12 12 12 12 12 12 12 12 12 11 12 12 12 12 11 11 11 11 10 10
9 10 9 8 8 8 8 8 9 9 9 9 8 8 8 9 9 9 9 9 9 9 9 9 8 8 8 8 8 8 8 8 8 8 8 8 7 7 6 7 8 8 9 9 9 9 9 9 9 9 10 10 11 11 12 12 12 12 13 13 13 13 12 12 12 12 12 12 12 12 12 11 11 11 11 11 11 11 11 11 11 11 11 10 10 10
9 10 9 9 8 8 7 8 9 8 8 8 8 8 8 8 8 9 9 9 9 9 8 8 8 8 8 8 8 7 7 7 7 7 7 8 7 6 5 6 7 8 8 8 8 9 9 9 9 9 9 10 10 11 11 11 11 11 12 12 12 12 12 12 12 12 12 12 12 11 11 11 11 11 11 10 10 10 10 10 10 10 10 10 10 9
9 9 9 8 8 8 7 7 8 8 8 8 8 8 8 8 8 8 8 8 8 8 7 7 7 7 7 7 7 7 7 7 7 7 7 7 6 5 5 6 7 7 8 8 8 8 8 8 8 8 8 9 10 10 10 10 10 10 11 11 11 11 11 11 11 11 11 11 11 11 11 11 10 10 10 10 10 10 9 9 9 9 9 10 10 9
9 9 8 8 8 7 7 7 8 8 8 8 8 7 7 7 7 7 7 7 8 8 7 6 6 6 6 7 6 6 7 6 6 5 6 6 5 5 5 6 6 6 6 7 7 7 7 7 7 7 7 8 9 9 10 10 10 10 10 10 10 11 11 11 11 11 11 11 10 10 10 10 10 9 9 9 9 9 9 9 9 9 9 9 9 9
8 7 7 7 7 7 7 7 7 7 7 7 7 7 7 6 7 7 7 7 7 7 7 7 6 6 6 6 6 6 6 6 5 4 4 5 4 5 5 5 5 5 5 6 6 6 6 6 6 7 7 8 8 9 9 10 10 10 10 10 10 10 10 10 10 10 10 10 10 10 9 9 8 8 8 8 8 8 8 8 8 8 8 8 8 9
8 8 7 7 7 7 7 7 7 7 7 7 7 7 7 6 7 7 6 7 7 6 6 6 7 6 6 6 5 5 5 5 4 4 4 3 4 4 4 4 4 4 4 5 5 5 5 6 6 6 6 7 8 8 8 9 9 9 9 10 10 10 10 10 10 9 9 9 9 8 8 8 7 7 7 7 7 7 6 6 6 7 7 8 8 8
Height
753 761 766 765 763 760 758 760 761 760 760 760 760 765 767 765 759 749 741 734 728 737 747 747 746 745 744 746 746 748 753 753 753 756 757 757 759 760 762 764 765 766 767 769 772 774 775 776 778 779 781 781 781 780 779 784 794 798 797 798 799 801 802 803 803 804 805 807 808 809 810 811 812 813 814 815 815 815 815 815 816 816 816 816 816 816
755 766 766 758 755 754 752 756 760 761 758 755 757 762 764 763 758 746 741 738 730 737 750 749 746 746 743 744 745 745 753 756 753 755 757 756 758 759 761 763 764 764 766 769 772 774 775 777 779 780 782 782 781 781 781 784 792 795 796 798 799 801 803 803 804 805 806 807 808 809 810 811 812 813 814 815 815 815 815 815 816 816 816 816 816 816
764 767 758 749 752 756 756 757 759 757 754 755 758 762 764 763 757 747 739 736 734 737 748 748 745 747 746 744 745 744 748 752 749 748 750 752 756 759 760 761 763 764 765 768 770 772 774 776 779 780 782 782 780 781 783 787 791 793 795 798 799 802 803 805 806 806 807 808 809 810 810 811 812 813 814 814 815 815 815 815 816 816 816 817 817 817
771 761 748 746 753 758 760 758 757 755 755 757 759 763 766 762 761 758 747 740 739 740 745 746 743 747 748 744 744 744 743 746 747 747 746 747 749 752 753 754 757 761 764 766 768 770 772 775 778 779 781 781 779 781 784 787 790 793 795 797 800 802 804 806 807 808 809 809 810 811 811 812 813 814 814 814 815 815 815 815 816 817 817 817 817 817
765 752 743 747 751 755 758 758 755 756 758 758 757 760 763 759 761 762 755 747 744 744 743 745 750 750 747 746 745 744 745 745 747 750 750 748 747 749 749 751 753 756 760 763 766 768 770 773 775 778 779 778 779 781 784 786 789 792 795 798 800 802 804 806 807 808 809 809 810 810 811 813 813 814 814 814 814 814 815 816 817 817 817 817 817 818
759 747 744 748 749 751 755 754 752 754 760 761 755 753 755 757 758 757 755 753 756 757 747 749 767 765 750 747 747 747 750 749 749 751 752 750 750 752 752 752 754 756 758 760 762 766 768 771 774 777 777 776 778 781 783 785 789 792 795 798 801 803 804 806 807 808 809 809 809 809 810 812 813 815 815 815 815 815 816 817 818 818 818 818 818 818
749 742 743 747 748 750 752 751 749 751 761 765 754 747 750 753 755 755 756 759 766 767 754 752 770 773 758 748 745 748 752 751 751 752 752 751 752 753 753 753 754 757 759 761 763 766 768 770 773 775 775 775 778 780 782 785 788 791 794 798 800 803 804 805 806 807 807 808 808 809 810 812 813 814 815 816 816 816 816 817 818 819 819 819 819 819
744 743 744 745 746 749 752 752 749 748 758 762 749 745 749 749 753 756 756 761 764 761 757 755 762 772 769 753 745 749 752 750 749 749 751 753 752 752 753 752 753 755 757 761 764 766 768 769 770 772 773 775 777 779 782 785 787 790 793 797 799 801 803 803 804 805 806 806 807 809 811 812 814 814 815 817 817 818 817 818 818 819 819 819 819 820
743 745 744 741 746 751 750 747 744 746 754 752 743 744 745 744 750 752 754 760 761 763 768 763 760 774 777 757 746 749 748 748 747 744 747 751 751 751 751 751 752 755 757 760 763 765 766 767 768 770 772 774 776 778 780 783 787 790 793 796 798 800 801 801 802 803 805 806 807 809 811 812 814 814 815 816 817 818 818 818 819 820 820 820 820 820
742 740 737 738 745 748 743 740 740 744 749 745 741 744 744 744 748 750 755 759 762 771 777 769 764 777 781 761 750 750 747 747 748 746 746 747 749 751 751 753 755 757 758 759 761 762 764 767 768 770 772 774 776 777 780 783 787 790 793 795 797 799 800 800 800 802 804 806 807 809 810 812 813 813 815 816 818 819 819 819 820 820 821 821 821 821
740 734 733 736 738 738 737 738 738 738 741 740 742 746 747 751 749 750 757 760 770 781 778 772 768 775 782 769 755 755 752 747 745 748 749 747 750 752 752 754 755 756 758 759 762 764 766 768 769 770 772 774 776 779 781 784 786 789 792 794 796 798 799 799 800 801 803 805 807 809 810 811 812 812 813 815 817 819 820 820 821 821 822 821 821 822
741 738 738 734 732 732 734 738 738 736 737 740 746 750 755 762 760 761 766 768 782 789 777 772 768 770 783 774 759 758 755 748 745 748 753 752 752 754 753 754 755 756 759 761 764 766 767 769 770 772 773 775 777 779 782 784 786 789 791 793 794 796 799 800 800 801 802 805 806 808 809 810 811 812 812 814 816 819 820 821 822 822 822 822 822 822
745 742 741 736 730 730 735 743 743 740 740 744 751 757 767 779 780 781 783 783 790 788 775 772 769 772 781 770 759 760 754 751 748 745 749 752 754 755 754 754 755 757 759 762 764 766 768 770 771 772 774 775 777 779 782 784 787 789 790 792 793 794 796 799 800 800 801 803 805 807 809 810 811 812 812 813 815 818 821 822 822 822 822 822 822 822
753 746 740 738 734 729 734 746 751 748 745 748 753 760 771 786 795 797 797 797 795 784 774 773 771 777 781 767 760 761 756 753 751 746 746 750 753 755 755 755 757 758 760 762 765 767 768 770 770 772 773 774 776 778 782 785 787 788 789 791 792 792 794 796 798 799 799 801 804 807 809 810 811 812 813 814 815 818 821 823 823 823 823 822 822 822
765 760 745 741 739 732 733 739 743 744 745 748 751 756 764 773 785 792 792 792 792 785 779 776 776 781 781 769 760 761 759 757 755 751 749 751 754 755 756 758 760 762 763 764 766 768 769 770 771 772 772 774 776 779 782 785 786 787 789 791 792 793 795 797 799 798 797 799 803 807 810 811 812 813 814 815 816 819 821 823 824 824 824 823 823 823
766 763 744 736 735 732 734 734 731 739 749 751 749 756 762 760 765 777 783 783 784 786 783 778 777 777 770 764 761 762 764 764 763 760 756 757 759 759 761 762 763 765 766 766 767 769 771 771 771 771 771 773 777 780 783 784 785 787 788 790 791 793 796 801 803 800 795 796 801 806 810 811 812 813 814 815 818 820 822 824 825 825 825 825 824 824
764 760 742 736 735 731 734 733 728 737 749 751 751 756 757 752 754 768 782 783 781 788 788 781 779 776 770 767 766 766 770 772 770 768 765 764 764 765 766 766 766 767 768 770 771 771 772 772 771 771 772 773 777 780 783 784 785 786 787 788 790 792 795 799 802 801 795 794 801 806 809 811 812 812 814 816 818 821 823 824 825 826 826 825 825 825
757 758 746 739 741 734 730 731 729 730 737 747 753 750 748 752 754 762 778 786 790 794 790 782 780 780 779 779 771 767 772 775 774 772 770 768 769 772 773 770 770 771 772 774 775 774 774 773 773 772 773 774 777 780 783 784 785 785 786 787 788 790 792 795 798 799 797 796 801 806 808 811 812 812 814 816 819 822 823 824 825 825 826 825 825 825
750 759 752 741 743 738 728 733 738 735 732 738 743 739 746 761 764 766 777 786 793 798 791 785 786 784 783 782 775 772 773 774 776 777 775 773 773 776 777 775 775 776 778 778 777 777 776 775 775 774 774 775 777 780 782 783 784 785 786 787 787 789 791 794 796 798 798 798 801 807 809 811 812 813 815 817 819 822 822 823 824 824 824 824 825 825
747 761 759 745 743 741 735 743 755 754 743 737 738 740 747 758 764 768 776 781 785 794 795 791 790 787 781 778 776 777 776 774 776 779 779 778 777 776 777 777 777 778 780 780 779 778 777 776 777 776 776 777 777 780 782 783 783 784 785 786 787 790 792 794 795 796 798 798 801 806 809 810 812 813 815 817 819 821 822 822 823 823 823 823 823 824
748 760 763 751 745 747 750 754 760 761 756 752 751 751 752 758 764 768 776 780 780 788 797 797 796 790 778 773 774 775 775 775 776 777 778 779 778 777 776 776 777 778 778 778 778 778 778 778 778 778 779 779 779 781 782 783 784 784 785 785 787 790 792 793 795 796 797 797 799 804 807 809 811 813 815 817 819 820 821 821 822 822 822 822 823 823
751 758 762 759 753 755 757 754 751 752 754 757 757 755 755 757 764 771 781 785 779 782 790 794 797 790 775 772 775 773 772 773 775 775 777 780 779 778 777 776 776 777 777 777 777 778 779 779 780 781 782 782 782 783 784 784 785 785 785 785 787 790 792 794 795 795 796 796 799 803 806 809 811 813 816 818 818 819 820 821 822 822 823 823 823 823
748 755 761 762 759 757 754 751 751 748 746 750 754 758 760 758 760 769 779 783 781 783 784 788 793 787 775 773 774 773 773 773 774 775 777 782 781 778 778 776 775 776 778 779 778 779 780 781 782 783 784 785 785 785 786 786 786 786 786 786 786 789 792 794 795 795 796 798 800 803 806 809 811 813 815 817 817 818 818 820 821 822 823 823 823 823
748 756 763 765 761 755 747 744 747 747 747 754 758 761 765 765 761 764 768 771 778 784 785 791 795 786 776 775 773 772 774 773 774 776 777 781 781 779 779 776 774 776 779 780 780 781 782 782 784 785 786 787 788 788 788 788 787 787 787 787 788 789 791 793 794 796 798 800 802 803 805 807 810 812 814 815 817 817 817 819 821 822 823 822 821 821
750 760 765 770 773 768 761 756 756 756 758 763 765 764 766 766 762 764 767 767 774 781 781 787 795 786 776 775 773 773 776 776 776 777 777 778 779 778 778 777 777 778 780 781 782 783 783 784 785 786 787 789 789 790 790 790 790 789 789 790 791 792 794 795 797 799 800 801 802 803 805 806 809 811 812 814 815 815 815 817 819 822 823 822 821 820
752 761 763 769 779 782 779 776 773 770 769 768 767 767 768 768 765 766 770 771 775 779 777 780 789 784 776 776 776 775 777 778 779 779 777 776 776 777 777 778 778 779 780 782 783 784 785 786 786 787 788 790 790 791 791 791 792 792 792 793 794 795 796 798 800 801 802 802 802 803 805 806 809 810 811 812 814 815 815 816 818 820 822 823 823 821
754 763 762 765 772 775 777 776 773 772 772 772 772 772 774 773 769 768 773 776 777 778 777 778 781 779 777 779 778 776 776 777 778 779 778 777 775 775 776 777 778 779 780 781 783 785 786 787 788 788 789 790 791 792 793 793 794 794 795 795 796 796 797 798 799 800 802 802 802 803 805 806 808 808 810 811 812 814 815 816 817 818 819 821 821 819
755 764 765 767 770 772 773 773 772 771 773 776 775 777 779 776 771 771 775 780 780 780 783 782 780 780 780 778 778 777 776 776 777 777 777 777 776 775 775 776 778 780 781 781 783 785 786 788 788 789 790 791 792 793 793 794 795 796 796 797 798 798 798 799 799 800 801 801 802 804 805 806 808 808 809 810 811 813 814 814 815 815 815 816 816 815
757 764 767 769 772 774 772 771 772 772 775 778 777 777 779 778 776 776 777 778 777 779 785 784 781 783 781 779 778 777 774 774 776 777 777 777 777 777 777 778 779 780 781 782 784 785 786 788 788 789 790 791 792 793 794 795 795 796 797 798 798 799 800 801 801 801 802 802 803 805 805 807 808 809 810 810 811 811 812 812 812 812 813 813 812 813
759 766 768 769 772 774 773 773 775 775 777 780 781 779 778 778 779 778 778 777 775 780 786 783 782 786 786 785 784 780 776 775 776 777 778 778 778 779 780 781 781 781 782 782 784 785 785 786 787 788 789 790 791 793 793 794 795 796 797 798 799 800 801 802 802 803 804 804 805 806 807 808 808 809 810 810 810 811 811 811 811 811 811 811 811 812
760 769 770 768 773 777 776 776 779 780 780 780 779 779 776 774 777 779 780 780 778 784 789 785 785 790 789 789 790 786 782 779 778 779 781 781 781 780 780 781 782 784 785 784 784 784 785 785 786 787 788 789 790 791 793 794 795 796 797 798 800 801 802 803 803 804 805 805 806 807 807 808 808 809 809 809 810 810 810 811 811 811 811 810 810 811
761 769 772 771 777 781 779 779 780 780 779 778 778 779 777 775 780 785 786 785 783 785 788 788 790 793 790 790 792 790 786 785 785 786 786 787 786 784 783 782 781 782 785 786 786 786 787 787 787 787 788 789 789 790 792 793 795 796 798 799 800 801 802 803 803 804 805 806 806 807 807 807 808 808 809 809 810 810 810 810 810 810 810 809 809 809
763 767 772 775 780 783 783 780 778 779 782 785 786 786 784 781 785 790 793 794 792 789 789 790 793 795 793 793 794 793 791 791 791 791 791 791 789 787 787 785 782 782 785 788 790 791 791 791 791 791 791 790 790 791 792 793 794 796 798 799 800 801 803 804 804 805 805 805 806 806 806 807 808 808 808 808 809 809 809 809 809 809 809 809 808 808
766 766 771 777 780 784 785 780 779 787 792 794 794 792 787 785 790 798 804 805 801 796 795 796 798 799 798 796 795 796 796 795 796 795 794 793 791 789 789 788 787 787 789 791 792 793 793 794 794 795 794 794 793 792 793 794 795 796 798 798 800 801 802 803 804 804 805 805 805 806 806 806 807 807 807 807 807 808 808 808 808 808 808 808 808 808
766 766 772 777 778 784 787 784 788 796 795 793 795 793 790 792 795 802 808 810 807 804 801 800 801 801 800 799 797 797 798 797 796 797 796 795 793 791 791 791 790 790 791 793 794 795 796 796 796 796 796 796 796 795 794 795 796 797 798 798 799 800 801 802 803 804 804 805 805 805 806 806 806 806 806 806 806 806 807 807 807 807 807 807 807 807
765 767 771 776 779 786 789 788 792 796 793 792 794 792 792 795 794 797 807 813 811 809 806 804 805 804 802 801 799 797 797 795 795 797 799 798 796 795 794 794 793 793 793 793 795 798 799 799 798 797 797 797 797 796 796 797 797 798 799 799 799 799 800 801 803 803 804 805 805 805 805 805 805 805 805 806 806 806 806 806 806 806 806 806 806 806
762 766 768 773 779 783 787 789 790 792 793 795 797 797 797 799 796 796 808 817 814 811 810 808 807 806 803 802 801 800 797 795 796 800 801 800 800 798 797 797 795 795 796 795 795 797 799 801 801 800 799 798 798 798 798 798 798 798 799 799 799 799 799 800 802 803 804 804 805 805 805 805 805 805 805 805 805 805 805 805 805 805 805 805 805 805
759 762 764 770 776 778 784 791 793 793 796 799 803 802 799 801 800 797 804 814 814 812 812 810 808 808 805 803 803 801 796 798 803 806 804 802 802 801 800 799 798 797 798 798 798 798 799 800 800 800 800 799 799 801 801 800 800 799 799 800 799 799 799 800 801 802 803 804 804 804 805 805 805 805 805 805 805 805 805 804 804 804 804 805 805 804
761 764 764 769 777 779 780 785 789 795 801 806 807 802 797 800 801 795 802 816 816 811 813 812 810 811 809 806 805 802 800 806 811 809 805 804 803 802 802 801 801 800 799 799 799 799 799 798 798 799 800 799 799 800 800 800 800 800 800 800 799 799 799 799 800 801 801 802 803 803 803 804 804 804 804 804 804 804 804 804 804 804 804 804 804 804
768 770 771 774 783 785 781 785 796 805 808 808 805 801 799 799 794 793 806 818 815 811 813 813 811 812 811 809 808 806 807 811 812 808 806 806 804 802 802 802 802 802 801 800 800 799 799 799 799 799 799 799 798 798 798 799 799 799 799 799 799 799 799 799 799 800 800 801 802 802 803 803 803 803 803 803 803 803 803 803 803 803 803 803 803 803
778 778 780 783 788 788 786 794 809 814 809 806 804 801 798 795 793 800 813 817 812 812 814 813 812 813 812 811 811 811 811 812 810 808 807 805 804 803 802 802 802 801 801 801 801 800 799 799 799 799 798 798 797 797 797 797 797 797 797 797 797 797 797 797 798 798 799 800 800 801 801 802 802 803 803 803 803 803 803 803 802 802 802 802 802 803
792 790 790 791 793 792 792 800 813 816 810 806 806 801 796 797 803 809 813 812 811 813 813 812 812 813 811 811 812 812 811 810 808 807 805 804 804 804 803 802 801 801 800 800 799 799 799 799 798 798 797 797 797 796 796 796 795 795 795 795 795 795 795 795 796 796 797 798 799 799 800 800 801 802 802 802 802 802 802 802 802 801 801 801 802 802
802 799 798 800 800 799 802 807 813 816 812 807 806 803 800 804 809 809 809 810 811 811 812 812 812 812 811 811 810 810 809 808 807 807 805 805 804 803 802 802 801 801 800 799 799 799 799 798 798 797 797 796 796 795 795 794 794 793 793 793 792 792 793 793 794 795 795 796 797 797 798 799 799 799 800 800 800 801 801 801 800 800 800 800 801 801
804 801 802 805 804 806 814 818 816 815 811 807 807 809 808 809 808 807 808 811 811 810 812 812 811 812 811 811 810 809 808 808 807 807 806 805 804 804 803 802 801 801 800 799 799 798 798 798 797 797 796 796 795 794 793 793 792 791 791 791 791 791 791 792 792 793 793 794 795 795 796 797 797 798 798 799 799 799 799 799 799 799 799 799 800 800
806 803 804 808 808 810 817 819 816 813 811 809 810 812 812 811 810 809 810 811 811 811 812 811 812 811 811 810 810 810 809 809 808 807 806 805 805 804 803 802 801 801 800 799 798 798 797 797 796 795 795 794 792 791 791 790 790 789 788 788 789 789 789 790 791 792 792 792 793 793 794 795 795 796 796 797 797 798 798 798 798 798 798 799 799 799
805 801 803 808 811 812 814 814 813 812 813 812 813 813 812 812 812 811 810 810 811 811 811 811 811 811 810 810 810 810 810 809 807 807 806 805 804 803 802 801 800 799 799 798 797 797 796 796 795 794 793 793 791 790 789 788 788 787 787 787 787 787 787 788 789 790 791 791 792 792 793 793 793 794 794 795 795 796 796 796 796 796 797 797 797 798
804 802 805 809 811 815 819 817 813 813 815 814 813 812 812 812 812 812 811 810 810 810 810 810 810 810 810 810 809 809 809 808 807 806 805 804 803 802 801 800 799 798 798 797 796 795 795 794 793 793 792 792 791 790 789 788 787 787 786 786 786 785 786 786 787 788 789 789 790 790 791 791 791 792 792 792 793 793 794 794 794 795 795 795 795 796
807 804 808 811 811 815 820 819 814 814 815 814 813 813 813 813 813 812 812 812 811 810 810 810 809 809 809 808 808 808 807 807 806 805 804 803 802 801 800 799 798 797 796 795 794 794 793 792 792 791 791 790 790 789 789 788 787 786 786 785 785 785 784 785 785 786 786 787 787 788 788 789 789 789 790 790 791 791 792 792 792 792 792 793 794 794
808 808 811 813 814 817 820 819 816 815 814 813 814 815 814 814 814 813 812 812 811 811 810 809 809 808 808 807 807 806 806 805 805 805 804 803 802 800 799 798 797 796 795 794 793 792 792 791 790 789 789 788 788 788 787 786 785 785 784 783 783 783 783 783 783 783 784 784 785 786 786 786 787 787 787 788 788 789 789 790 790 790 790 791 791 792
810 813 815 815 817 820 821 818 816 816 816 814 814 814 814 814 813 812 812 811 810 810 810 809 808 807 806 805 805 805 805 804 804 804 803 802 801 800 798 797 796 796 794 793 792 791 790 789 788 787 786 786 785 785 784 784 783 783 782 781 781 780 780 780 781 781 782 782 782 783 784 784 784 785 785 785 786 786 787 787 787 788 788 788 789 789
811 813 814 816 818 819 818 816 816 816 816 814 813 813 813 812 811 811 811 811 810 810 809 808 807 806 805 805 804 804 804 804 803 803 802 801 800 799 798 797 796 794 793 792 790 789 788 787 786 785 784 784 783 782 782 781 780 780 779 779 779 778 778 778 779 779 780 780 780 781 781 782 782 782 783 783 784 784 784 785 785 785 785 786 787 787
Wind_Speed
3 1 2 4 6 7 8 7 7 7 7 5 0 3 0 3 5 7 6 5 3 7 1 3 6 2 0 1 4 3 2 6 10 9 8 8 8 8 9 9 9 9 8 11 17 19 19 19 23 27 27 27 31 35 37 34 29 29 31 29 28 28 27 26 26 26 25 23 22 20 19 18 17 17 17 16 15 14 13 11 10 8 7 8 8 6
3 3 7 9 10 10 9 7 6 4 2 1 2 2 3 2 6 7 4 6 4 7 1 0 6 3 3 2 4 9 8 8 10 11 10 10 9 8 9 9 9 8 7 10 13 16 19 19 22 27 27 28 29 30 33 33 31 31 31 30 29 27 27 27 26 26 25 23 22 21 21 22 22 20 19 18 16 14 11 10 9 7 7 9 8 6
1 4 11 13 10 6 5 4 2 2 1 3 2 2 3 2 4 7 6 8 6 5 1 2 4 2 7 3 5 12 11 8 10 13 13 12 10 8 9 10 9 8 8 10 11 13 20 23 24 26 26 28 30 29 31 33 32 30 29 28 28 27 26 25 24 24 24 22 20 19 21 21 20 18 16 15 14 12 11 9 9 8 8 10 9 7
2 6 11 11 6 4 5 4 2 3 2 1 1 1 2 2 1 3 6 7 6 2 1 1 4 3 5 3 3 9 10 9 9 9 11 13 13 13 13 12 12 12 11 11 10 11 17 22 23 24 25 27 30 30 31 32 31 29 28 28 27 27 26 24 23 23 22 21 20 20 20 19 17 16 14 13 13 12 12 11 9 8 8 9 9 9
6 9 6 3 6 8 6 5 4 4 3 3 2 3 4 1 1 4 5 5 5 5 1 4 6 4 3 5 2 3 3 7 8 7 8 9 9 10 11 11 12 13 13 13 12 11 13 18 21 24 26 28 30 31 32 32 31 29 28 28 28 28 26 25 24 23 22 22 23 23 21 18 17 16 14 14 14 14 13 12 11 11 10 10 10 10
9 11 4 1 5 6 5 5 5 5 1 4 3 6 6 4 3 2 4 4 5 6 3 5 4 6 5 4 4 4 1 7 7 8 10 8 5 6 9 9 9 9 10 11 12 12 12 15 20 24 26 28 29 31 33 33 32 30 29 30 28 27 26 26 24 23 22 23 24 24 23 21 19 17 15 15 16 15 14 13 12 12 11 9 10 10
7 7 5 4 2 4 5 2 4 5 4 2 4 7 7 6 5 4 5 4 2 1 4 3 5 4 6 5 6 2 5 8 5 6 8 6 6 7 8 8 8 8 8 8 9 10 11 15 19 21 25 28 29 31 33 33 32 30 29 29 29 25 23 24 23 22 23 24 25 24 23 21 20 19 16 16 17 15 13 12 11 10 8 7 8 8
4 3 5 5 4 5 4 1 4 5 7 3 6 6 4 1 4 5 6 3 2 2 4 4 4 2 4 5 6 1 4 6 7 8 7 6 7 9 9 10 11 11 10 9 9 9 11 16 20 22 25 28 30 32 33 33 32 30 28 29 28 23 21 24 24 24 25 26 26 25 23 22 21 20 19 18 17 15 13 11 9 8 7 6 7 8
2 3 5 6 5 3 2 5 6 5 4 6 7 5 4 2 5 5 6 3 1 2 4 6 2 1 4 6 5 3 2 3 6 7 9 11 10 10 11 10 10 10 10 10 11 11 13 17 21 23 25 26 30 33 33 32 32 29 28 29 27 22 23 26 27 27 26 26 27 26 24 23 22 21 20 20 18 15 13 12 10 9 8 8 9 10
3 6 8 7 5 4 6 7 6 7 3 6 3 2 1 2 2 4 6 3 3 5 2 6 2 0 4 6 5 4 4 3 5 4 8 13 11 9 9 7 8 8 8 10 11 11 14 17 21 23 25 26 28 31 31 31 31 29 28 30 26 23 26 28 27 28 28 27 27 27 26 25 24 24 23 21 19 17 15 14 13 11 10 10 11 11
5 4 4 5 4 6 6 5 4 6 5 2 3 4 5 6 4 3 3 3 4 2 5 6 1 2 1 5 4 2 3 2 2 2 2 9 8 7 7 7 9 9 8 8 7 7 10 15 19 22 24 24 24 26 27 28 30 29 29 30 25 23 26 27 27 27 27 27 26 26 27 26 26 27 26 23 21 19 18 17 16 13 12 12 12 11
6 3 1 2 3 4 3 1 3 0 2 3 4 4 3 4 5 5 5 4 2 3 6 5 1 6 2 4 4 5 7 4 3 4 5 7 7 6 7 7 7 8 7 6 6 6 8 10 13 16 20 21 21 22 23 24 26 26 26 27 25 24 25 26 27 27 25 25 25 26 27 27 28 29 27 26 25 23 21 19 17 16 15 13 12 12
5 1 3 5 4 2 5 1 5 5 5 5 4 5 4 2 4 3 3 2 1 4 5 4 2 3 2 5 5 7 8 7 2 7 10 9 8 7 7 8 6 6 7 6 6 6 6 7 9 13 16 19 20 21 21 20 19 19 20 22 25 25 26 26 26 26 26 25 25 26 27 28 28 28 27 27 27 25 22 20 20 19 18 16 14 13
3 4 4 4 4 0 6 3 2 3 2 3 4 3 4 2 2 1 3 1 1 4 4 4 1 0 3 3 5 7 7 5 4 5 11 10 10 9 7 8 7 7 7 7 6 5 5 6 9 12 15 18 20 20 19 17 17 17 17 20 24 27 29 30 28 26 26 25 24 25 28 28 28 26 26 27 27 26 22 21 22 21 19 18 16 15
1 4 4 1 2 1 4 5 6 4 1 2 4 5 4 4 4 3 3 2 3 3 3 4 1 2 2 3 4 6 9 7 7 5 9 10 9 9 8 9 9 7 6 6 7 6 5 5 8 11 14 16 17 17 16 16 17 17 17 19 23 23 21 23 26 28 28 24 20 23 28 28 27 25 25 27 26 25 23 22 22 20 19 18 16 16
3 4 6 3 2 2 2 4 5 6 2 2 1 5 1 4 5 2 3 5 4 0 2 2 1 3 3 2 4 6 10 8 7 7 9 10 8 8 8 8 8 6 6 6 7 6 5 6 6 7 12 16 14 15 16 16 17 17 17 18 21 21 16 13 18 26 30 25 19 23 28 28 26 25 25 26 25 23 23 21 20 18 17 16 15 16
2 4 6 4 3 2 3 5 4 5 2 1 2 1 3 4 7 4 1 2 4 3 2 1 1 4 2 2 5 7 8 7 5 5 7 8 8 8 7 7 7 6 6 6 6 6 6 8 11 8 6 11 12 16 17 17 17 18 18 18 18 21 23 21 20 23 28 27 20 22 28 28 26 24 24 24 23 22 23 21 18 17 16 15 15 14
4 2 6 2 3 6 5 3 1 3 5 3 0 3 2 2 4 4 1 2 3 2 3 1 2 2 1 1 4 6 6 5 4 5 7 9 9 8 6 6 7 7 7 6 6 6 7 9 13 14 11 9 12 17 20 18 17 17 17 17 18 22 27 27 24 21 23 27 23 21 25 28 26 24 22 22 21 21 23 22 20 19 17 17 15 14
4 1 7 2 2 6 5 4 3 4 3 4 3 3 3 2 1 1 2 1 1 1 3 3 1 1 2 3 3 4 4 6 5 3 5 9 9 9 6 6 7 7 6 5 6 5 6 10 14 17 17 14 13 15 18 18 16 15 15 15 17 23 27 25 21 16 14 18 18 17 22 25 25 24 21 20 20 21 22 23 22 21 20 18 17 16
3 3 4 4 1 3 5 5 3 5 6 4 2 2 3 3 3 1 1 3 3 2 2 2 2 1 3 4 1 1 1 6 7 5 5 6 7 7 7 7 7 7 6 5 5 5 6 10 15 18 20 19 16 14 15 15 15 14 14 15 16 20 22 20 19 16 12 13 12 12 19 23 23 24 21 19 21 23 22 22 23 22 21 20 19 18
3 3 3 6 4 3 2 1 3 3 4 4 4 3 1 2 2 1 1 1 3 4 2 1 1 4 5 2 3 3 3 4 6 7 6 4 5 5 6 6 6 6 6 5 6 6 6 10 15 18 20 21 20 17 15 14 14 13 12 14 15 16 17 18 18 16 14 16 14 13 18 21 20 22 21 20 23 24 22 22 23 21 20 21 21 20
2 2 2 3 4 2 3 3 2 2 3 2 2 2 2 3 3 3 0 2 1 4 4 4 1 5 5 1 2 5 5 5 6 8 7 4 6 6 6 6 6 5 5 5 6 6 6 10 14 16 18 20 21 19 17 15 14 14 13 13 13 13 14 15 15 15 15 18 18 15 18 22 21 20 20 22 25 25 22 22 23 22 19 18 19 20
3 4 3 1 2 3 6 4 3 1 1 2 1 2 3 2 4 5 3 3 0 1 2 4 2 4 6 1 2 4 4 5 7 8 8 5 4 6 6 6 7 7 5 5 6 6 7 11 14 15 17 18 19 19 18 16 14 13 14 14 12 10 12 13 13 14 13 15 16 16 19 22 21 19 19 19 20 20 19 17 19 20 17 17 21 23
3 4 3 2 4 5 6 3 4 5 5 5 3 4 5 2 1 4 5 3 3 2 2 3 1 3 5 3 3 4 3 5 6 6 9 7 4 5 6 6 7 7 6 5 6 5 8 11 13 14 15 15 17 18 17 16 15 14 12 13 12 11 12 12 13 14 13 14 17 19 21 21 21 21 20 18 17 17 16 13 13 16 15 16 22 24
1 1 3 3 3 5 7 6 6 6 5 2 3 3 4 4 4 2 1 3 3 3 4 5 2 5 5 1 5 6 5 7 6 5 7 7 6 6 6 5 6 6 6 6 6 6 7 8 9 11 13 14 15 17 18 18 17 17 17 16 16 15 15 15 16 16 15 16 17 19 20 20 19 19 20 19 18 17 18 16 15 17 16 14 15 19
2 2 3 4 3 1 1 1 2 3 3 2 3 5 5 5 6 3 2 4 2 2 3 6 3 4 2 4 7 8 7 7 6 5 5 6 7 7 6 6 5 5 6 6 6 5 5 6 8 10 13 15 16 18 19 19 18 18 19 19 19 17 17 16 16 14 13 12 13 14 16 16 16 16 16 16 15 14 17 19 19 18 17 14 13 14
4 2 3 6 6 5 5 4 3 0 2 3 5 7 6 4 4 5 4 2 2 1 2 2 4 4 3 3 4 6 8 8 6 6 6 5 6 7 6 6 6 5 6 6 6 5 5 5 6 8 11 13 15 17 19 20 19 18 17 17 16 15 14 12 12 11 10 9 10 11 13 14 15 15 15 14 15 14 15 19 19 17 16 16 16 15
5 2 1 5 4 4 5 3 2 2 3 2 4 5 5 5 6 6 5 0 2 4 2 5 0 6 4 2 2 6 7 8 8 7 7 7 7 7 6 7 6 6 6 6 7 7 6 6 6 8 11 12 13 16 18 20 19 17 16 16 13 12 12 11 10 9 8 8 8 9 10 11 10 10 11 12 13 14 15 17 18 18 16 16 17 16
6 1 1 4 3 1 2 2 4 4 3 2 3 3 4 5 6 5 1 1 5 5 3 4 2 4 3 3 2 3 4 6 7 6 5 4 4 5 5 6 7 8 8 8 7 8 8 7 6 8 12 13 14 16 18 18 17 15 14 14 15 13 11 11 9 8 8 8 8 7 7 7 7 6 7 8 9 11 12 13 14 14 14 14 15 15
5 0 1 4 3 3 4 5 7 7 5 4 2 0 1 3 5 5 3 2 5 5 4 4 7 5 2 5 5 4 2 3 6 5 4 4 3 3 2 1 3 5 7 9 8 8 8 8 9 12 15 15 16 17 18 18 17 15 13 11 12 14 12 11 10 8 8 8 8 7 7 7 7 7 7 6 6 6 7 7 8 8 9 10 11 12
4 1 1 4 4 4 4 5 7 6 5 4 3 4 0 3 3 3 1 1 5 4 2 6 8 5 3 4 4 4 5 7 8 7 7 6 5 5 5 2 1 1 1 5 7 8 8 9 10 13 15 16 17 18 19 19 18 17 15 12 11 10 8 8 9 9 8 7 6 5 5 6 8 9 9 8 7 6 6 7 7 9 9 10 11 12
4 1 1 5 4 4 3 5 6 5 6 6 6 6 5 4 4 3 2 2 3 5 4 7 6 0 4 3 3 5 8 10 9 8 7 6 5 6 6 3 3 5 3 2 3 4 5 6 7 10 13 16 18 19 18 18 17 17 16 13 10 9 6 4 5 6 5 5 5 5 5 4 4 4 3 3 2 1 1 1 2 3 4 5 6 7
3 3 1 3 3 4 3 4 6 6 7 5 4 5 3 2 7 7 6 6 3 5 5 4 3 2 3 2 4 7 10 10 8 6 5 6 6 7 8 6 2 5 5 5 4 5 6 7 7 8 13 16 18 19 18 16 15 14 13 11 9 8 7 5 4 2 1 2 3 2 2 2 2 2 3 3 3 3 4 4 4 4 4 4 4 5
2 5 3 2 3 3 4 3 6 4 2 3 6 5 1 7 13 11 6 8 7 5 4 4 2 2 4 5 7 8 8 7 7 6 6 5 6 7 9 9 8 8 9 9 8 8 8 10 11 11 12 14 15 16 14 14 13 12 11 11 10 9 8 7 6 5 1 3 2 1 0 0 1 1 2 2 2 3 3 4 4 5 5 6 6 6
3 5 3 2 4 3 2 5 5 2 5 5 4 3 6 12 15 14 10 9 9 7 6 6 6 5 5 5 5 6 7 7 8 9 9 7 6 7 9 9 9 9 9 9 9 8 9 11 13 12 12 13 14 14 13 12 12 12 11 11 11 9 8 8 9 9 7 2 1 1 1 2 2 2 3 4 4 4 4 4 4 4 5 7 7 7
5 4 3 2 3 2 1 4 2 5 4 2 4 5 6 7 8 10 11 10 8 6 5 5 6 6 5 5 3 3 5 6 8 9 9 8 7 8 8 7 6 7 7 8 9 9 9 11 12 11 11 13 14 14 13 11 10 10 10 9 9 8 7 7 8 9 10 8 6 4 3 2 2 2 3 4 4 4 4 4 5 5 6 6 6 6
7 4 3 3 2 3 4 3 1 2 2 3 4 3 2 2 1 4 6 5 6 5 4 4 6 7 7 7 5 2 0 6 9 8 7 7 7 7 8 7 7 8 7 8 11 12 10 7 6 8 9 10 12 13 11 8 8 7 7 7 6 5 5 5 6 7 8 9 8 7 6 5 5 4 3 3 3 3 3 4 4 4 4 4 4 5
5 5 5 5 3 3 5 2 0 2 4 3 4 4 3 3 3 4 6 3 4 5 4 4 5 6 6 7 7 5 2 6 6 5 6 7 7 6 7 8 10 11 10 10 10 10 9 6 5 6 6 6 6 5 6 6 6 4 4 4 4 3 3 3 5 7 8 9 8 8 7 7 7 7 6 6 5 5 5 4 4 5 5 5 6 6
4 2 4 4 2 2 5 4 2 3 4 4 5 7 7 6 2 4 6 3 3 5 5 4 5 6 5 5 7 6 5 5 3 4 5 5 5 6 7 7 9 10 9 10 9 7 6 5 5 4 2 4 5 1 3 4 4 2 1 3 3 3 4 4 5 8 10 10 10 9 9 9 10 10 9 9 8 6 5 3 3 4 5 5 6 6
7 4 3 4 2 1 2 2 1 1 1 3 5 6 8 6 3 6 3 1 2 5 4 4 6 5 5 5 5 6 6 4 2 4 5 5 5 7 7 7 8 8 8 9 10 8 5 5 4 2 3 2 1 3 6 7 7 5 4 4 4 5 6 6 8 9 9 9 9 9 10 10 10 11 10 9 7 4 2 1 2 4 5 5 5 6
4 3 3 3 3 2 3 3 2 1 1 3 5 7 7 5 5 5 4 4 1 4 3 5 6 5 5 5 5 4 2 2 3 4 4 4 6 8 9 11 12 12 11 11 11 11 10 11 11 11 11 10 8 8 8 9 9 7 5 5 5 6 7 8 9 9 8 9 9 8 8 8 8 10 10 8 6 5 4 4 6 7 8 6 5 5
3 3 3 2 2 2 2 3 2 1 1 3 5 7 5 3 2 2 4 3 2 3 3 5 5 4 4 4 3 1 3 4 3 4 6 6 5 6 9 13 15 16 17 16 16 16 14 13 13 14 16 16 13 11 10 10 10 9 8 7 7 7 8 8 8 7 7 7 7 7 8 8 10 10 9 7 7 7 8 8 8 10 8 5 4 5
1 1 2 2 2 2 3 3 2 1 2 3 4 4 4 2 4 3 2 2 3 4 4 4 3 2 3 3 2 2 4 5 5 5 6 7 7 7 9 12 13 14 16 17 17 18 17 15 14 14 16 19 17 13 11 11 13 13 12 12 11 11 11 10 8 7 7 6 6 7 8 9 10 10 8 8 8 8 8 9 9 9 7 5 5 6
2 1 1 1 1 2 2 1 1 3 3 3 2 3 3 2 1 3 4 3 3 4 3 3 3 3 3 5 5 5 5 5 6 6 6 6 7 8 10 12 13 14 16 16 15 17 18 18 17 17 18 19 20 19 16 12 11 11 10 9 9 9 8 7 6 7 7 7 7 8 8 8 8 8 8 7 7 7 8 8 8 8 7 5 6 8
3 1 1 2 3 4 3 2 3 4 3 3 5 5 4 4 4 5 5 3 2 1 1 2 3 4 4 5 5 5 5 5 5 5 5 6 6 6 9 11 13 14 14 14 15 17 18 17 17 19 21 23 21 20 19 15 13 12 10 7 5 4 3 3 3 4 5 6 6 6 6 7 8 7 6 6 7 8 8 8 8 8 7 7 8 11
3 2 3 4 4 4 3 1 1 1 3 5 5 4 4 5 4 3 5 3 0 2 1 1 1 1 3 4 3 3 4 5 5 6 6 5 6 7 10 13 14 15 15 14 16 16 16 17 17 17 18 21 20 17 14 11 11 12 10 8 7 6 6 5 4 4 4 5 6 6 6 7 7 7 7 7 8 8 8 8 9 9 9 9 10 12
4 3 4 3 2 3 2 3 4 3 4 4 5 4 5 5 4 2 2 0 2 2 1 2 3 2 2 2 1 2 5 5 5 5 5 5 5 7 9 12 14 16 17 17 17 16 15 15 15 15 15 17 16 14 11 7 4 4 3 3 3 3 4 5 5 6 7 9 10 11 11 10 10 10 10 9 9 8 8 8 9 10 11 11 12 14
2 2 3 2 2 3 3 2 3 2 2 4 5 5 5 5 5 4 3 2 2 2 2 1 1 1 1 2 2 3 4 5 4 5 5 5 5 7 9 12 14 17 18 19 18 16 14 12 12 12 14 15 14 13 12 9 6 3 3 4 4 4 5 6 7 8 10 10 11 11 12 12 12 11 11 11 11 10 10 10 10 12 13 13 15 16
1 2 2 2 3 2 0 1 3 4 4 4 4 4 4 3 4 5 5 4 4 4 3 3 2 1 1 3 3 3 4 5 5 5 5 5 5 7 11 13 15 16 17 17 16 14 13 12 12 13 14 15 15 15 15 14 12 9 6 6 7 6 6 7 8 9 10 10 11 12 12 11 11 11 11 11 11 11 11 11 12 14 15 16 17 18
3 2 1 3 3 1 2 2 0 1 2 4 4 4 3 1 4 5 5 5 5 4 4 4 4 4 4 5 5 4 4 5 5 5 5 5 7 10 11 12 13 14 15 16 16 15 14 14 13 13 14 16 16 16 16 16 15 13 11 10 9 8 7 7 7 9 11 12 12 12 12 11 11 10 10 11 11 12 12 13 13 15 16 17 19 19
3 3 3 4 3 3 5 5 3 3 2 5 5 4 3 2 5 5 5 5 5 5 4 4 5 6 6 7 6 4 3 4 6 6 5 6 9 11 11 12 13 14 15 16 15 15 15 14 13 12 12 13 14 15 16 15 13 11 10 9 8 7 7 7 8 11 12 12 12 12 11 10 10 9 10 11 12 13 14 14 14 15 17 18 19 19
Wind_Direction
130 164 268 220 224 227 230 215 204 229 227 230 281 115 255 314 297 303 321 318 113 110 59 149 132 135 19 172 162 132 108 145 143 144 152 155 153 160 166 166 163 160 160 158 159 160 158 159 158 157 159 159 160 161 159 166 185 185 173 170 167 166 165 162 160 158 158 158 153 151 151 146 146 150 149 146 145 139 133 132 132 128 120 120 121 119
96 189 243 228 221 218 229 230 203 216 230 349 21 35 359 340 299 298 309 328 36 100 307 297 110 151 248 278 178 146 150 176 162 154 161 163 165 170 165 163 161 155 146 147 156 157 153 154 156 157 162 162 158 157 158 166 178 177 173 174 171 169 170 169 168 165 164 162 158 152 144 138 136 139 139 136 136 134 129 128 128 130 134 130 125 128
50 230 243 238 224 211 241 246 169 179 82 37 1 17 343 288 301 309 314 340 18 88 266 323 68 251 259 269 166 154 164 190 179 168 167 165 165 172 167 160 159 155 151 157 161 154 151 154 159 161 168 166 158 157 161 168 174 173 176 179 177 176 174 172 169 165 164 163 162 155 146 143 138 135 137 134 132 132 129 126 121 117 132 137 132 136
223 242 246 240 200 172 240 228 114 48 44 40 354 4 284 256 53 321 314 335 352 16 244 27 23 304 288 332 163 171 177 180 185 184 173 169 171 176 172 163 163 163 160 164 161 154 154 158 165 169 172 166 158 159 165 169 172 175 179 179 176 174 172 170 167 163 163 162 162 157 149 148 141 135 136 134 130 129 124 124 125 122 130 135 128 128
243 256 264 254 189 190 209 199 140 75 8 300 240 222 248 251 157 243 283 323 343 338 351 76 20 325 351 8 304 255 199 170 176 192 193 187 179 170 165 162 167 166 161 163 162 160 161 165 170 172 170 163 159 163 167 171 174 177 180 178 175 174 173 172 170 168 168 164 160 152 144 142 138 135 137 134 129 127 123 122 123 124 130 131 121 118
257 257 253 252 212 186 168 182 172 130 38 309 251 224 217 168 172 251 339 9 28 351 316 79 46 298 331 354 287 309 216 183 179 188 197 191 167 161 163 162 167 163 160 163 161 162 165 165 168 170 167 161 162 167 169 172 176 179 182 179 178 179 177 175 175 176 175 168 161 154 148 145 140 137 140 140 137 133 129 126 122 123 128 127 119 114
256 240 186 168 151 102 104 177 208 146 116 304 247 205 187 149 118 80 50 45 75 273 289 71 111 257 322 327 280 282 168 190 210 217 206 184 168 174 171 163 163 161 157 155 153 157 161 162 165 169 167 164 167 169 170 173 178 181 183 182 182 183 183 182 181 183 179 169 164 162 159 156 151 147 144 145 144 140 135 133 129 125 126 127 126 120
244 202 141 134 100 81 77 272 236 144 117 235 245 186 184 138 109 115 92 78 211 231 321 11 102 171 303 283 265 271 145 195 220 219 210 198 182 174 174 172 169 166 157 148 150 154 161 166 169 170 168 167 169 170 171 175 178 181 181 182 185 186 187 185 182 183 180 173 169 167 164 160 157 151 147 146 147 146 146 144 141 134 124 119 124 124
231 175 173 145 103 104 166 223 211 131 120 245 242 199 218 212 146 131 101 102 309 47 339 322 45 127 276 280 291 6 33 251 241 215 185 186 190 179 179 175 164 160 151 147 154 161 168 172 170 168 167 168 170 172 174 176 178 180 179 181 186 187 180 174 174 177 177 175 171 168 164 160 158 154 150 150 149 151 153 146 143 138 124 116 119 122
244 209 192 142 123 183 216 225 184 133 172 250 233 174 16 47 91 87 94 108 41 59 263 280 336 124 267 291 314 4 359 295 284 273 179 175 182 174 166 153 140 145 151 156 163 164 167 170 168 166 167 169 170 173 176 177 178 180 180 181 187 186 176 168 169 173 172 171 171 169 166 160 159 158 154 154 154 154 152 146 144 142 132 127 126 126
276 249 190 137 162 192 197 222 191 157 182 203 65 49 26 19 13 34 74 82 53 23 253 260 287 111 285 295 281 287 302 246 203 314 154 152 151 144 138 131 137 151 162 161 153 140 147 160 165 165 167 169 168 170 174 177 178 180 181 182 184 184 178 173 172 173 172 172 173 172 167 163 163 162 158 156 157 158 157 153 151 151 145 136 133 134
332 349 255 260 217 169 131 292 298 69 126 100 72 59 43 351 5 16 1 36 76 261 257 263 35 94 115 275 271 291 305 288 162 121 108 123 123 118 120 120 134 148 148 138 127 124 135 148 161 165 166 167 166 168 171 173 177 178 179 180 181 182 183 182 179 178 177 176 176 173 170 168 167 165 162 158 159 162 163 160 158 157 154 149 145 144
341 279 262 300 282 141 101 343 317 356 35 83 95 71 75 353 9 16 325 1 191 250 255 277 12 78 220 245 267 312 328 312 250 130 121 122 115 107 114 118 121 124 121 121 127 138 145 149 163 168 168 171 172 171 167 162 163 168 174 178 178 181 186 189 186 182 179 177 175 173 173 173 171 170 168 163 162 166 168 167 165 163 162 163 160 154
330 306 322 345 314 79 114 133 275 321 13 123 151 117 112 112 63 303 278 306 261 262 269 290 326 289 290 265 272 321 358 336 308 115 116 116 117 118 116 112 108 108 114 120 120 124 135 152 171 176 176 179 179 175 166 151 145 154 169 180 182 183 188 191 188 183 178 175 176 178 179 178 176 175 173 168 167 169 172 173 172 172 171 169 166 161
98 316 308 136 282 253 147 167 181 167 146 204 169 132 138 152 143 201 222 189 238 265 287 311 358 159 218 252 283 357 41 30 355 45 89 93 100 108 104 98 97 99 104 109 105 102 109 135 167 184 191 191 183 174 163 149 147 150 156 172 184 184 186 190 188 182 175 172 178 185 185 183 181 181 177 173 172 173 176 177 176 178 178 174 168 162
127 249 257 243 245 219 197 207 164 118 61 278 125 90 135 188 152 158 187 173 176 185 306 297 230 203 195 238 334 44 71 59 20 22 61 77 78 81 88 88 89 88 85 89 91 89 80 81 104 160 196 198 184 165 155 150 154 156 153 163 177 180 180 189 195 187 175 172 181 188 188 188 185 183 180 176 176 178 181 181 181 182 181 177 171 164
122 254 275 310 330 303 251 231 176 119 132 279 32 76 239 183 130 119 225 195 109 102 280 251 213 293 332 18 356 41 87 100 96 80 76 81 72 69 76 81 83 80 73 73 77 81 75 65 64 77 147 181 164 145 143 150 160 164 166 171 175 177 181 188 200 196 178 172 183 192 192 192 188 184 182 180 180 183 186 187 188 187 184 179 176 172
137 260 284 336 347 305 284 245 211 122 131 113 191 218 222 63 90 106 130 353 51 119 270 276 184 271 33 182 334 31 83 99 100 122 118 105 91 81 76 78 81 78 75 77 78 78 76 71 67 67 83 125 142 138 142 153 164 167 172 180 179 179 186 189 194 196 183 178 187 197 196 194 192 187 183 181 182 186 192 195 196 195 192 186 182 180
112 50 289 322 5 305 335 40 7 341 74 117 186 182 97 75 357 41 114 151 93 189 275 311 257 181 153 214 307 10 109 110 78 75 108 115 120 120 114 102 92 83 78 83 86 84 79 77 75 74 78 95 121 136 144 154 165 169 175 188 187 184 188 187 181 179 176 176 185 198 199 196 192 188 185 184 188 192 197 201 203 203 201 195 190 187
98 107 273 298 342 319 356 42 34 335 348 9 7 27 65 134 161 138 141 156 147 171 244 311 352 299 221 217 240 317 147 125 115 106 103 116 125 127 126 118 108 105 106 107 100 98 93 84 83 81 81 87 103 124 143 157 170 176 185 199 198 189 185 181 174 169 159 155 165 191 197 195 193 189 188 190 194 198 201 205 208 207 205 202 199 195
56 94 232 292 336 28 10 33 67 10 337 350 348 341 42 96 119 109 73 85 121 134 167 145 4 278 254 223 183 166 118 113 134 128 120 124 114 108 110 107 107 111 107 103 96 94 93 86 85 87 88 92 102 116 133 149 166 177 190 201 194 181 177 177 175 170 162 164 179 197 191 188 188 188 192 199 201 203 205 206 208 209 207 205 204 201
70 110 171 298 343 34 239 242 56 348 266 210 251 259 151 137 121 107 4 315 87 129 156 146 163 266 259 259 218 189 141 127 145 130 119 128 127 119 117 114 112 100 84 84 85 85 89 85 85 89 92 96 103 114 127 138 154 171 186 198 191 169 165 172 172 166 162 171 186 199 189 184 185 187 195 204 205 206 206 206 208 209 208 208 211 210
119 103 103 324 275 251 260 240 105 24 306 112 104 12 55 101 113 120 186 250 73 95 129 115 116 267 270 277 150 187 169 140 139 131 123 128 135 124 121 120 109 94 79 81 88 90 92 92 92 91 91 96 104 115 129 138 149 164 179 194 197 176 163 169 170 164 162 169 179 183 181 183 188 192 198 202 204 206 202 199 205 206 208 218 222 216
80 82 78 317 294 305 308 329 62 38 39 51 7 23 46 10 123 141 174 168 135 161 132 104 139 258 275 282 119 128 137 118 112 118 120 119 114 110 114 113 104 100 94 91 95 99 101 99 98 95 94 99 104 111 123 133 143 157 171 182 185 180 174 171 170 169 164 166 174 175 173 178 185 191 194 193 196 200 193 189 202 209 218 230 225 216
59 108 96 56 4 348 340 351 5 3 29 46 310 351 43 27 18 40 100 81 99 194 153 127 198 252 273 311 95 87 82 94 90 95 114 117 117 116 114 108 103 106 107 101 95 94 101 104 103 103 105 106 107 111 118 126 138 149 157 162 165 171 174 167 166 172 171 168 174 177 174 175 181 187 189 191 196 197 193 197 211 218 226 234 224 212
113 134 113 109 125 167 284 284 297 320 342 340 329 354 18 33 36 45 58 61 81 216 118 121 183 248 315 63 100 107 101 97 93 93 101 110 122 128 127 125 125 125 123 116 104 99 105 110 109 110 112 112 112 113 117 123 132 140 148 156 159 162 164 162 161 167 171 171 178 186 187 191 200 205 207 213 217 210 201 207 218 224 227 235 234 220
89 89 109 126 148 178 189 214 243 297 23 341 347 4 7 11 43 84 83 62 184 140 69 182 175 137 106 83 118 139 130 123 129 130 125 131 141 145 144 141 143 146 143 135 122 116 112 108 108 111 115 116 115 115 117 120 123 126 132 143 154 159 159 161 167 175 181 186 189 192 195 202 214 221 226 235 238 231 222 222 230 236 238 242 244 238
88 59 103 121 140 188 184 206 302 67 90 3 354 17 22 17 38 68 70 73 158 90 9 279 106 118 167 220 178 186 171 150 157 162 158 167 167 161 159 152 146 144 143 136 130 127 121 114 109 110 116 120 119 118 118 116 114 114 111 112 126 146 159 161 161 167 176 183 190 197 203 210 220 231 239 246 247 243 239 239 243 249 254 254 254 254
105 128 214 124 102 133 134 50 24 55 81 71 62 58 50 51 69 81 60 198 131 118 203 243 91 118 222 309 25 221 210 162 162 163 148 151 157 155 156 158 157 152 146 141 138 134 128 125 122 117 118 121 120 120 119 116 112 111 107 100 99 108 131 149 149 153 165 169 173 181 189 195 202 215 228 240 245 243 243 246 249 252 258 261 262 263
100 185 229 105 73 20 21 33 41 44 44 57 74 233 81 95 118 137 192 190 111 116 185 161 104 93 330 340 356 336 344 106 122 107 81 66 73 91 83 166 195 175 158 154 150 140 134 130 126 124 122 120 120 121 120 115 110 108 107 101 95 95 106 120 119 120 150 168 174 178 186 192 194 199 206 213 224 233 237 240 241 242 248 255 260 262
79 175 242 82 67 335 346 40 52 55 62 52 331 289 348 73 83 122 168 73 87 91 69 85 84 64 354 339 345 357 31 62 71 73 69 51 51 73 67 44 209 179 164 168 158 147 141 135 129 127 124 120 120 121 119 113 107 104 103 102 99 93 94 106 104 96 111 132 140 148 175 202 212 219 228 231 237 246 248 248 250 253 259 266 270 271
81 120 353 67 77 288 318 47 43 43 58 38 351 339 6 40 52 61 49 42 119 143 93 69 82 53 300 322 2 35 54 61 58 57 61 48 41 65 64 54 164 162 161 179 159 138 124 117 121 124 120 116 117 119 121 119 111 103 101 101 97 87 82 100 106 93 93 103 105 103 104 120 153 173 189 201 198 167 170 206 244 265 281 291 295 295
109 111 100 92 106 268 289 65 57 42 39 11 314 308 318 74 80 62 28 11 41 126 118 105 145 243 302 20 69 60 57 62 57 48 57 57 49 57 55 38 59 122 106 72 51 46 45 44 59 94 107 111 115 117 119 121 117 108 99 95 91 87 87 86 77 68 130 133 104 94 88 87 99 107 102 98 81 69 69 67 63 52 36 26 19 6
105 113 146 135 120 248 276 52 58 41 30 251 257 281 305 105 93 78 42 11 18 52 87 105 102 5 12 66 92 87 72 71 68 56 52 54 51 59 63 54 55 71 77 73 65 53 47 43 45 59 78 91 102 112 115 114 115 115 107 99 96 87 73 55 37 31 63 189 176 130 103 46 3 348 352 352 342 339 351 5 18 27 25 17 11 8
150 129 148 127 123 193 284 53 53 279 224 222 267 9 78 101 98 87 63 28 18 28 46 54 40 13 21 53 85 106 103 91 79 63 49 42 44 55 61 60 65 72 72 73 68 52 44 50 51 48 53 64 77 94 104 103 106 111 107 103 102 88 62 44 38 41 45 47 234 250 268 273 285 284 281 292 302 311 321 331 337 341 342 342 341 342
156 151 155 142 130 147 109 93 140 232 233 284 348 27 71 80 78 75 59 27 6 4 21 35 18 3 15 28 36 108 114 87 69 53 41 37 42 52 58 55 59 68 77 88 91 80 59 52 50 44 46 52 54 60 72 84 93 98 95 94 96 87 65 41 30 33 36 33 29 32 36 23 350 309 269 264 267 276 289 297 306 314 317 323 328 326
156 148 153 182 183 139 145 167 201 244 272 340 351 358 48 20 359 108 92 42 0 356 11 33 23 11 16 21 6 314 105 67 54 28 14 25 34 47 60 59 54 53 62 84 98 100 92 81 70 62 68 75 56 36 40 68 85 84 76 71 67 63 54 29 12 10 11 10 9 12 16 13 3 354 332 301 284 282 290 295 305 315 315 316 321 318
165 166 171 192 201 113 122 158 169 201 230 258 293 296 304 295 244 151 114 70 347 346 7 47 39 21 25 27 7 337 2 61 47 353 345 8 20 31 40 52 67 71 69 73 87 99 105 111 107 78 72 94 84 29 12 43 59 59 50 36 28 18 353 333 330 332 335 339 341 344 348 350 349 344 335 324 314 308 306 304 304 306 307 310 314 314
47 106 138 143 149 109 127 154 172 184 215 245 275 295 306 298 269 112 94 57 336 332 350 46 47 22 24 29 18 25 59 66 25 312 311 333 6 33 28 29 54 69 68 63 67 86 99 100 108 103 69 93 109 138 291 328 352 359 338 324 308 282 284 288 294 304 309 311 315 321 324 330 332 329 324 316 308 303 301 299 298 299 304 310 311 308
24 27 58 76 60 56 111 131 146 149 212 259 273 292 302 310 31 89 111 248 327 326 334 57 61 32 28 29 26 46 67 67 336 293 288 304 354 28 29 23 33 40 42 40 33 32 33 21 9 323 303 315 260 244 235 237 254 259 251 259 256 250 259 271 279 284 282 282 292 302 307 314 320 323 324 318 307 302 304 325 330 317 314 316 310 304
13 14 47 85 76 53 80 101 103 116 254 268 281 294 304 336 49 97 190 220 305 340 357 73 71 47 48 49 46 51 34 308 278 287 305 347 8 7 4 5 8 8 9 11 9 4 355 345 343 337 328 322 311 293 265 241 241 248 249 247 243 248 266 281 284 278 264 263 276 287 291 298 308 317 321 314 300 292 290 302 312 310 310 310 298 288
8 3 23 51 45 36 89 106 89 23 280 272 286 306 334 35 96 173 203 194 96 50 55 69 62 54 60 61 74 89 298 295 304 330 345 3 5 351 352 357 358 358 357 356 356 356 348 334 333 333 329 326 320 309 300 285 269 264 261 252 245 258 276 279 277 271 261 263 272 278 283 289 298 307 309 294 281 281 285 292 298 299 301 297 277 269
17 38 36 15 359 34 60 72 91 145 276 293 300 327 15 88 189 195 132 95 80 69 57 49 39 40 46 29 350 302 316 329 343 346 343 344 344 340 346 351 353 350 349 349 352 357 356 346 338 331 322 315 310 305 303 292 278 274 271 259 254 266 271 261 248 243 246 252 263 276 286 288 290 298 300 287 276 276 281 287 291 295 295 281 259 250
5 39 75 14 10 75 69 41 168 206 258 301 30 61 50 50 116 96 90 71 48 50 50 35 2 339 10 7 334 327 348 349 342 343 346 344 342 341 343 347 348 346 347 350 354 358 360 354 348 343 333 322 311 303 298 285 267 264 266 264 266 273 267 251 241 240 246 254 263 270 273 271 272 279 282 277 273 272 271 272 276 284 290 277 255 240
331 312 92 61 64 90 114 195 219 228 278 1 59 80 69 50 55 82 97 89 52 35 60 43 358 341 11 17 357 358 2 342 329 335 339 334 327 330 334 335 337 339 342 345 348 349 349 347 346 345 342 338 330 315 301 284 259 245 239 236 243 248 238 247 271 279 277 271 261 252 247 247 253 258 253 251 261 266 264 262 261 266 272 263 243 231
323 356 71 86 89 84 70 2 313 356 16 31 54 85 81 59 46 78 96 96 195 243 217 108 108 30 44 47 29 359 329 314 317 322 321 323 324 326 328 328 329 332 333 333 335 338 339 337 337 338 338 339 340 334 320 293 259 246 235 219 212 214 219 236 261 279 287 277 263 255 251 248 248 246 243 243 247 251 254 256 254 252 252 247 235 228
329 23 67 77 89 88 54 338 344 34 53 42 34 35 45 37 18 42 85 6 277 261 150 135 155 150 112 84 42 300 292 299 312 312 312 319 316 317 322 322 320 321 321 321 322 325 327 327 328 332 333 331 330 334 338 333 287 253 240 224 217 220 227 240 254 264 273 274 268 260 254 250 244 239 239 239 238 239 244 249 248 243 238 236 231 225
315 38 75 59 45 103 140 255 312 14 48 53 47 27 9 3 1 10 15 341 344 21 36 39 111 123 57 352 305 276 285 294 292 290 297 302 299 301 307 308 308 309 310 312 313 316 319 321 322 325 326 322 317 314 317 323 326 313 277 275 286 282 268 264 262 263 265 263 252 243 239 239 237 235 238 241 242 246 247 246 246 243 239 240 239 232
24 41 85 81 38 44 111 304 345 0 354 0 18 4 348 359 17 15 12 14 23 17 356 348 358 16 340 314 289 283 303 302 292 293 298 296 297 302 304 306 309 313 314 315 316 318 320 319 317 316 314 313 311 303 296 295 298 296 288 282 281 274 268 264 256 250 245 234 227 228 230 231 231 233 236 239 244 249 250 248 248 248 247 247 245 241
68 63 86 83 64 11 275 270 283 69 305 299 312 329 335 44 67 36 8 358 355 341 329 329 328 321 317 313 311 324 327 314 314 322 318 306 307 310 314 321 325 325 325 325 321 319 317 316 315 312 308 306 304 295 285 281 280 278 278 280 278 275 270 254 232 219 214 211 214 220 222 223 226 229 232 239 246 250 251 251 250 249 248 244 240 240
106 138 140 123 141 212 240 236 192 146 217 268 292 321 333 29 49 24 349 331 320 307 296 294 299 303 310 319 333 355 340 310 319 326 315 310 317 322 329 335 331 327 328 327 323 321 324 326 326 323 316 309 302 288 272 265 261 257 259 263 265 267 261 240 217 206 205 208 214 216 219 224 229 233 239 247 251 251 250 249 249 249 247 242 237 235